User: anonymous   Login
Location: Natural Bridges National Monument
(37.6093°N, 109.9767°W)
Time: 11:30:22
(UTC-06:00)
Language:

USA 32 - Orbit

View from above orbital plane
View from above orbital plane
View from above satellite
View from above satellite

Ground track
Ground track

The orbit data is extracted from the following two-line orbital elements,

1 19460U 88078A   15086.86310764 0.00000200  00000-0  72763-4 0    00
2 19460  84.9866 333.5173 0004998 201.4903 158.5096 14.33290589    05
Epoch (UTC): 27 March 2015 20:42:52
Eccentricity: 0.0004998
inclination: 84.9866°
perigee height: 777 km
apogee height: 784 km
right ascension of ascending node: 333.5173°
argument of perigee: 201.4903°
revolutions per day: 14.33290589
mean anomaly at epoch: 158.5096°
orbit number at epoch: 0

The dashed part of the orbit path shows where the satellite is in the earth's shadow,  

DLR